Regional Weather Roundup
Issued by NWS

Home | Current Version | Previous Version | Text Only | Print | Product List | Glossary On
Versions: 1 2 3 4 5 6 7 8 9 10 11 12 13 14 15 16 17 18 19 20 21 22 23 24 25 26 27 28 29 30 31 32 33 34 35 36 37 38 39 40 41 42 43 44 45 46 47 48 49 50
000
ASCA42 TJSJ 231711
RWRPR
PUERTO RICO/U.S. VIRGIN ISLANDS HOURLY WEATHER ROUNDUP
NATIONAL WEATHER SERVICE SAN JUAN PR
100 PM AST TUE SEP 23 2014

PRZ001-004-231800-
PUERTO RICO

CITY           SKY/WX    TMP DP  RH WIND       PRES   REMARKS
SAN JUAN LMM   MOSUNNY   90  79  70 NE17G23   29.93F HX 105
AGUADILLA      CLOUDY    84  75  74 SE6       29.94  HX  92
CEIBA          SUNNY     88  75  66 SE10      29.97F HX  97
$$

PRZ006-007-231800-
U.S. VIRGIN ISLANDS

CITY           SKY/WX    TMP DP  RH WIND       PRES   REMARKS
$$

HOURLY WEATHER ROUNDUP FOR THE NEWS MEDIA

CITY           SKY/WX    TMP DP  RH WIND       PRES   REMARKS
MIAMI          CLOUDY    76  71  85 SW12      30.04S
ORLANDO        PTSUNNY   85  71  63 SW12      30.02F HX  90
NEW YORK       MOSUNNY   66  44  45 SW12      30.34S
NEWARK         MOSUNNY   67  41  38 SW3       30.33S
CHICAGO        SUNNY     64  46  52 SW7       30.34S
HARTFORD       SUNNY     64  40  41 VRB3      30.28S
BOSTON         MOSUNNY   67  40  37 W9        30.27S
DALLAS         PTSUNNY   75  52  44 VRB7      30.21S
PHILADELPHIA   MOSUNNY   67  43  41 SE5       30.36R


USA.gov is the U.S. government's official web portal to all federal, state and local government web resources and services.